www.pogodaiklimat.ru

Погода и климат >> Архив погоды >> Парагвай >> Puerto Casado


ПОГОДА в Puerto Casado

  • Прогноз погоды в Puerto Casado
  • Монитор погоды в Puerto Casado
  • Климат города

АРХИВ ПОГОДЫ в Puerto Casado

Время (UTC), дата Ветер
(напр.,м/с)
 
Видим.   Явления Облачность Т
(С)
Тd
(С)
f
(%)
Тe
(С)
Тes
(С)
Комфортность P
(гПа)
Po
(гПа)
Тmin
(С)
Tmax
(С)
R
(мм)
R24
(мм)
S
(см)
00 14.02 ЮВ 1 20 км ясно +26.8 +19.4 64 +32 +32 очень
душно
1013.5 1004.5 +31.0
03 14.02 ЮВ 1 20 км ясно +25.0 +20.4 76 +31 +31 очень
душно
1012.4 1003.5
06 14.02 Ю 1 20 км ясно +21.0 +17.8 82 +26 +26 душно 1014.2 1005.0
09 14.02 штиль 0 20 км ясно +19.0 +17.3 90 +20 +20 1014.3 1005.1
12 14.02 ЮВ 1 20 км 4/0
[Ci]
+23.6 +17.8 70 +28 +35 душно 1015.2 1006.1 +19.0
15 14.02 ЮВ 1 20 км 5/0
[Ci]
+27.6 +17.1 53 +32 +53 опасность
солнечного
удара
1014.0 1005.0
18 14.02 СВ 1 20 км 6/3 800 м
[Cu hum Ci]
+33.0 +19.3 44 +38 +50 очень
душно
1013.3 1004.5
21 14.02 Ю 1 20 км 5/3 800 м
[Cu hum Ci]
+34.2 +18.6 40 +39 +40 очень
душно
1010.9 1002.2
00 15.02 штиль 0 20 км 4/1 800 м
[Cu med, cong Ci]
+28.8 +21.7 66 +37 +37 очень
душно
1010.4 1001.5 +34.2
03 15.02 штиль 0 20 км 3/0
[Ci]
+27.0 +24.1 84 +37 +37 очень
душно
1011.1 1002.2
09 15.02 штиль 0 20 км ясно +24.0 +20.9 83 +30 +30 очень
душно
1013.5 1004.5
12 15.02 СВ 1 20 км 3/0
[Ci]
+28.2 +22.0 69 +36 +44 очень
душно
1013.6 1004.7 +23.6
15 15.02 В 2 20 км 3/3 800 м
[Cu hum]
+32.0 +21.7 55 +41 +56 опасность
перегрева
1014.4 1005.5
18 15.02 С 1 20 км 4/4 800 м
[Cu hum]
+34.0 +20.6 46 +41 +52 опасность
перегрева
1013.0 1004.2
21 15.02 СВ 1 20 км 8/4 800 м
[Cu med, cong Ac As]
+34.4 +20.4 44 +41 +41 опасность
перегрева
1010.9 1002.1
00 16.02 В 1 20 км 5/0 2000 м
[Ac As Ci]
+30.0 +21.0 59 +38 +38 очень
душно
1009.7 1000.9 +35.0
03 16.02 штиль 0 20 км 3/0 2000 м
[Ac As]
+29.0 +20.4 60 +36 +36 очень
душно
1010.8 1001.9
06 16.02 штиль 0 20 км ясно +27.0 +22.6 77 +36 +36 очень
душно
1012.1 1003.2
09 16.02 В 1 20 км 3/0 2000 м
[Ac As]
+26.0 +21.5 76 +33 +33 очень
душно
1012.5 1003.5
12 16.02 В 1 20 км 8/0 2000 м
[Ac As]
+25.0 +22.0 83 +32 +36 очень
душно
1013.4 1004.5 +25.0
15 16.02 С 1 20 км 9/0 2000 м
[Ac As Cs]
+32.0 +21.7 55 +41 +54 опасность
перегрева
1014.0 1005.2
18 16.02 С 1 20 км гроза без осадков 9/5 800 м
[Cb cap Ac As]
+33.6 +20.8 47 +41 +45 опасность
перегрева
1012.0 1003.2
21 16.02 В 2 10 км гроза, ливневой дождь 10/5 800 м
[Cb cap Ac As]
+25.0 +22.0 83 +32 +32 очень
душно
1011.5 1002.5 0.3
00 17.02 В 1 20 км зарница {гроза} 10/6 450 м
[Cb cap Ac As]
+24.4 +22.3 88 +32 +32 очень
душно
1011.5 1002.5 +33.6 0.7
03 17.02 В 1 20 км 10/6 450 м
[Sc Ac As]
+24.0 +22.5 91 +31 +31 очень
душно
1014.5 1004.5
09 17.02 В 2 20 км 10/5 300 м
[Sc Ac As]
+23.0 +21.4 91 +31 +31 очень
душно
1012.8 1003.7
12 17.02 В 2 10 км слабая морось 10/6 300 м
[Sc Ac As]
+23.0 +21.5 91 +31 +32 очень
душно
1013.8 1004.7 +23.0 9
15 17.02 В 1 20 км {морось} 10/6 300 м
[Sc Ac As]
+26.0 +21.6 77 +33 +36 очень
душно
1013.7 1004.7 8
18 17.02 В 2 20 км 9/4 300 м
[Sc Ac As]
+27.0 +23.1 79 +36 +40 очень
душно
1012.6 1003.7 8
21 17.02 С 2 20 км 9/5 300 м
[Sc Ac As]
+26.4 +23.0 82 +35 +36 очень
душно
1012.6 1003.7
00 18.02 штиль 0 20 км {морось} 9/6 300 м
[Sc Ac As]
+24.6 +20.8 79 +31 +31 очень
душно
1011.7 1002.7 +27.0 1
03 18.02 В 1 20 км 9/6 300 м
[Sc Ac As]
+24.0 +20.9 83 +30 +30 очень
душно
1010.7 1001.7
06 18.02 В 1 20 км 10/6 300 м
[Sc Ac As]
+22.6 +20.1 86 +29 +29 очень
душно
1010.8 1001.7
09 18.02 В 1 20 км 10/6 300 м
[Sc Ac As]
+22.0 +20.4 91 +28 +28 душно 1010.8 1001.8
12 18.02 штиль 0 20 км 10/6 300 м
[Sc Ac As]
+23.4 +19.7 80 +30 +31 очень
душно
1010.1 1001.1 +22.0 9
15 18.02 ЮВ 1 20 км 10/6 300 м
[Sc Ac As]
+23.6 +21.2 86 +30 +33 очень
душно
1008.1 999.1
18 18.02 С 2 20 км {морось} 8/3 300 м
[Sc Ac As]
+26.6 +21.2 72 +34 +39 очень
душно
1007.8 998.8 1
21 18.02 С 1 20 км {ливн. осадки} 9/4 800 м
[Cu med, cong Ac As]
+27.0 +24.1 84 +37 +38 очень
душно
1006.6 997.7 4
00 19.02 В 1 20 км 8/3 800 м
[Cu med, cong Ac As]
+25.0 +22.0 83 +32 +32 очень
душно
1006.8 997.8 +27.0 4
03 19.02 В 1 20 км 8/0 2000 м
[Ac As]
+24.0 +20.9 83 +30 +30 очень
душно
1007.8 998.8
06 19.02 В 1 20 км {морось} 10/8 300 м
[St Ac As]
+23.0 +19.9 83 +30 +30 очень
душно
1005.8 996.8 1
09 19.02 СВ 1 10 км гроза, ливневой дождь 10/6 300 м
[Cb cap Ac As]
+21.0 +19.4 91 +27 +27 душно 1005.9 996.8 5
12 19.02 В 1 20 км {гроза} 10/6 300 м
[Sc Ac As]
+25.0 +22.0 83 +32 +33 очень
душно
1006.7 997.8 +21.0 2
15 19.02 С 2 20 км 9/3 800 м
[Cu med, cong Ac As Cs]
+29.0 +23.2 71 +39 +48 очень
душно
1005.5 996.7
18 19.02 С 2 20 км 8/4 800 м
[Cu med, cong Ac As Cs]
+31.0 +23.8 66 +43 +49 опасность
перегрева
1005.3 996.5
21 19.02 С 2 20 км гроза без осадков 9/5 800 м
[Cb cap Ac As]
+28.0 +23.6 77 +38 +39 очень
душно
1003.4 994.5
00 20.02 штиль 0 20 км гроза без осадков 9/4 800 м
[Cb cap Ac As]
+25.0 +23.5 91 +34 +34 очень
душно
1003.4 994.5 +31.0 2
03 20.02 штиль 0 20 км зарница {гроза} 9/4 800 м
[Cb cap Ac As]
+24.4 +22.3 88 +32 +32 очень
душно
1004.5 995.5
09 20.02 В 1 20 км 10/4 300 м
[Sc Ac As]
+23.0 +21.5 91 +31 +31 очень
душно
1005.8 996.8
12 20.02 С 2 20 км 8/4 300 м
[Sc Ac As]
+26.4 +22.9 81 +35 +37 очень
душно
1006.7 978.0 +22.0 2
15 20.02 С 1 20 км 8/4 450 м
[Cu Sc Ac As]
+30.6 +22.6 62 +40 +48 очень
душно
1007.5 998.7
18 20.02 С 1 20 км 8/3 800 м
[Cu Sc Ac As]
+33.6 +20.8 47 +41 +47 опасность
перегрева
1006.0 997.3
21 20.02 С 1 20 км 8/3 800 м
[Cu med, cong Ac As]
+33.0 +21.1 50 +41 +41 опасность
перегрева
1006.1 997.3

 

Местоположение метеостанции Puerto Casado (Парагвай): широта -22.28 долгота -57.86 высота над уровнем моря 87 м.

В архиве по умолчанию представлена погода в Puerto Casado за последнюю неделю. Архивные данные за месяц целиком и за предыдущие месяцы, начиная с января 2011 года, Вы можете получить, выбрав интересующий диапазон дат из раскрывающегося списка и нажав кнопку "Ввод!".

Внимание! Время в таблицах - всемирное. Для получения местного времени необходимо прибавить поправку, которая в Puerto Casado равна -4 ч.

Смотрите также архив погоды в соседних городах и на ближайших метеорологических станциях:

Погода в Concepcion (Парагвай) (138 км)
Погода в Pozo Colorado (Парагвай) (162 км)
Погода в San Pedro (Парагвай) (213 км)
Погода в Pedro Juan Caballer (Парагвай) (222 км)
Погода в Ponta Pora (Бразилия) (224 км)
Погода в Ponta Pora (Бразилия) (241 км)
Погода в Miranda (Бразилия) (256 км)
Погода в Amambai (Бразилия) (272 км)
Погода в Mariscal Estigar (Парагвай) (284 км)
Погода в Maracaju (Бразилия) (286 км)

Пояснения к столбцам:

Ветер - указаны скорость ветра в м/с - средняя за 10 мин, порывы в срок и между сроками (в фигурных скобках) и направление, откуда дует ветер: С - северный, СВ - северо-восточный, В - восточный, ЮВ - юго-восточный, Ю - южный, ЮЗ - юго-западный, З - западный, СЗ - северо-западный.
Видимость - горизонтальная дальность видимости в метрах или километрах. При видимости от 1 до 10 км при отсутствии осадков обычно наблюдается дымка, при ухудшении видимости до 1 км и менее - туман. В сухую погоду видимость может ухудшаться дымом, пылью или мглою.
Явления - указаны атмосферные явления, наблюдавшиеся в срок или в последний час перед сроком; фигурными скобками обозначены явления, наблюдавшиеся между сроками (за 1-3 часа до срока); квадратными скобками обозначены град или гололедные отложения с указанием их диаметра в мм.
Облачность - указаны через наклонную черту общая и нижняя облачность в баллах и высота нижней границы облаков в метрах; квадратными скобками обозначены формы облаков: Ci - перистые, Cs - перисто-слоистые, Cc - перисто-кучевые, Ac - высококучевые, As - высокослоистые, Sc - слоисто-кучевые, Ns - слоисто-дождевые, Cu - кучевые, Cb - кучево-дождевые. Подробнее классификацию облаков см. в Атласе облаков (PDF).
T - Температура воздуха - температура, измеренная на высоте 2 м над землей.
Td - Температура точки росы - температура, при понижении до которой содержащийся в воздухе водяной пар достигнет насыщения.
f - Относительная влажность воздуха - влажноcть воздуха, измеренная на высоте 2 м над землей.
Te - Эффективная температура - температура, которую ощущает одетый по сезону человек в тени. Характеристика душности погоды. При расчете учитывается влияние влажности воздуха и скорости ветра на теплоощущения человека.
Tes - Эффективная температура на солнце - температура, которую ощущает человек, с поправкой на солнечный нагрев. Характеристика знойности погоды. Зависит от высоты солнца над горизонтом, облачности и скорости ветра. Ночью, в пасмурную погоду, а также при ветре 12 м/с и более поправка равна нулю.
P - Атмосферное давление - приведенное к уровню моря атмосферное давление.
Po - Атмосферное давление - измеренное на уровне метеостанции атмосферное давление.
Tmin - Минимальная температура - минимум температуры воздуха на высоте 2 м над землей.
Tmax - Максимальная температура - максимум температуры воздуха на высоте 2 м над землей.
R - Количество осадков - Количество выпавших осадков за период времени, мм. При наведении курсора мыши на число - период времени, за который выпало указанное количество осадков.
R24 - Количество осадков - Количество выпавших осадков за 24 часа, мм.
S - Снежный покров - Высота снежного покрова, см. При наведении курсора мыши на число - состояние снежного покрова и степень покрытия местности в баллах.